Measurements were made at the meteorological tower in Juelich (50.90 N / 6.40 E) at an altitude of 100 m,
"Instrument: Fast Greenhouse Gas Analyzer (FGGA), Los Gatos Inc.",
Responsible PI: Dr. Marc von Hobe; Forschungszentrum Juelich GmbH; IEK-7; email: m.von.hobe@fz-juelich.de,
NaN or negative numbers are fill values (i.e. no valid measurements were made at that time),
Uncertainties are given as the 1-sigma standard deviation over each 10 minute intervals. In each interval ~600 individual measurements are carried out so that the standard error of the mean is approximately sigma/sqrt(600).,
time_utc,CO2_ppm,stdev_CO2_ppm,CH4_ppm,stdev_CH4_ppm,H2O_ppm,stdev_H2O_ppm
"2015-04-01 00:05:00 000",406.024,0.630358,1.98804,0.0174918,6423.78,221.547
"2015-04-01 00:15:00 000",406.106,0.709947,1.95164,0.00793645,6341.80,217.458
"2015-04-01 00:25:00 000",405.110,0.654203,1.97106,0.0145796,6362.77,215.684
"2015-04-01 00:35:00 000",405.141,0.652446,1.96669,0.0148054,6361.76,221.023
"2015-04-01 00:45:00 000",404.885,0.674866,1.95508,0.0183789,6097.44,221.297
"2015-04-01 00:55:00 000",405.273,0.670877,1.93574,0.00772116,6081.81,212.836
"2015-04-01 01:05:00 000",404.783,0.698384,1.92766,0.00426023,6066.28,208.180
"2015-04-01 01:15:00 000",404.786,0.640909,1.92868,0.00465211,5924.85,221.528
"2015-04-01 01:25:00 000",404.854,0.696673,1.93138,0.00732666,5805.12,230.502
"2015-04-01 01:35:00 000",403.915,0.696614,1.92598,0.00427651,5733.25,215.191
"2015-04-01 01:45:00 000",404.882,0.785177,1.95324,0.0212763,5581.27,210.666
"2015-04-01 01:55:00 000",405.652,0.710434,1.94301,0.00952367,5476.81,219.973
"2015-04-01 02:05:00 000",406.335,0.667894,1.96828,0.0201833,5579.42,215.361
"2015-04-01 02:15:00 000",405.998,0.731084,1.97591,0.0247983,5678.47,221.795
"2015-04-01 02:25:00 000",405.658,0.691814,1.93560,0.00640349,5757.50,226.967
"2015-04-01 02:35:00 000",406.278,0.731670,1.95204,0.0100425,5686.95,215.060
"2015-04-01 02:45:00 000",406.435,0.833704,1.98033,0.0250136,5624.80,216.526
"2015-04-01 02:55:00 000",405.659,0.741722,1.97365,0.0147246,5635.27,225.863
"2015-04-01 03:05:00 000",405.344,0.679288,1.95274,0.0232352,5670.80,213.038
"2015-04-01 03:15:00 000",404.973,0.655931,1.93019,0.00535812,5606.74,220.621
"2015-04-01 03:25:00 000",405.180,0.800272,1.93310,0.00978212,5354.40,257.986
"2015-04-01 03:35:00 000",404.659,0.627392,1.92793,0.00459039,5261.54,222.320
"2015-04-01 03:45:00 000",404.665,0.655617,1.92671,0.00465276,5492.65,218.679
"2015-04-01 03:55:00 000",404.772,0.695293,1.93085,0.00853898,5444.07,222.066
"2015-04-01 04:05:00 000",404.813,0.701317,1.92862,0.00695579,5353.30,219.337
"2015-04-01 04:15:00 000",405.447,0.711890,1.93715,0.0127047,5323.74,219.433
"2015-04-01 04:25:00 000",403.804,0.791888,1.92376,0.00575554,5005.00,237.452
"2015-04-01 04:35:00 000",404.289,0.679327,1.92467,0.00447376,5222.62,252.274
"2015-04-01 04:45:00 000",404.668,0.687570,1.92570,0.00438604,5604.47,233.706
"2015-04-01 04:55:00 000",404.635,0.648984,1.92721,0.00460059,5685.77,214.583
"2015-04-01 05:05:00 000",406.416,0.888933,1.96767,0.0246313,5634.10,216.512
"2015-04-01 05:15:00 000",406.741,0.633193,1.98849,0.0124913,5529.15,220.149
"2015-04-01 05:25:00 000",406.535,0.706662,1.96418,0.0142973,5542.81,219.468
"2015-04-01 05:35:00 000",407.196,0.667754,1.97628,0.0125198,5573.43,225.662
"2015-04-01 05:45:00 000",406.798,0.672458,1.97281,0.0143430,5586.85,225.992
"2015-04-01 05:55:00 000",406.623,0.596324,1.97764,0.0153788,5643.16,210.736
"2015-04-01 06:05:00 000",406.781,0.645524,1.97217,0.0119327,5716.59,228.381
"2015-04-01 06:15:00 000",406.621,0.649633,1.97192,0.0182019,5862.29,221.081
"2015-04-01 06:25:00 000",406.644,0.664725,1.94874,0.00745548,5824.11,222.939
"2015-04-01 06:35:00 000",406.687,0.626834,1.96343,0.0120753,6043.09,272.774
"2015-04-01 06:45:00 000",407.176,0.654713,1.97916,0.0156169,6308.32,205.211
"2015-04-01 06:55:00 000",406.459,0.721836,1.96482,0.0106315,6212.28,242.147
"2015-04-01 07:05:00 000",407.206,0.770206,1.95976,0.0147257,5916.78,222.898
"2015-04-01 07:15:00 000",407.540,0.668187,1.96399,0.0110077,5851.10,231.950
"2015-04-01 07:25:00 000",406.842,0.718700,1.96080,0.0119309,5646.61,221.856
"2015-04-01 07:35:00 000",406.159,0.650087,1.94677,0.00590121,5685.57,234.820
"2015-04-01 07:45:00 000",405.616,0.712416,1.94233,0.00659004,5809.08,216.243
"2015-04-01 07:55:00 000",405.454,0.645481,1.94738,0.00794694,5802.80,228.474
"2015-04-01 08:05:00 000",405.507,0.691567,1.94782,0.0100493,5799.05,207.722
"2015-04-01 08:15:00 000",405.723,0.658884,1.95243,0.0136236,5867.82,202.033
"2015-04-01 08:25:00 000",405.178,0.692919,1.94288,0.00951986,5855.71,208.656
"2015-04-01 08:35:00 000",406.011,0.854760,1.95231,0.0101514,5957.67,206.927
"2015-04-01 08:45:00 000",405.977,0.828415,1.95419,0.0120236,5812.95,248.769
"2015-04-01 08:55:00 000",405.422,0.648854,1.94404,0.00682461,5729.92,238.153
"2015-04-01 09:05:00 000",405.497,0.658293,1.95062,0.0106822,5972.72,200.992
"2015-04-01 09:15:00 000",406.202,0.703137,1.94760,0.00907635,5796.23,170.808
"2015-04-01 09:25:00 000",406.201,0.667967,1.95229,0.0104103,5850.91,169.115
"2015-04-01 09:35:00 000",406.231,0.665543,1.95320,0.0113036,5774.27,163.481
"2015-04-01 09:45:00 000",406.446,0.665547,1.94782,0.00843610,5708.33,157.519
"2015-04-01 09:55:00 000",406.187,0.718719,1.95536,0.0156112,5818.20,161.325
"2015-04-01 10:05:00 000",405.236,0.684700,1.95209,0.0126683,5932.21,151.970
"2015-04-01 10:15:00 000",405.483,0.654395,1.95178,0.0110484,5713.05,143.151
"2015-04-01 10:25:00 000",405.781,0.659837,1.95699,0.0105089,5500.84,163.274
"2015-04-01 10:35:00 000",405.497,0.644028,1.96582,0.0130048,5696.69,223.217
"2015-04-01 10:45:00 000",405.085,0.649858,1.95167,0.0172442,5592.36,196.451
"2015-04-01 10:55:00 000",405.292,0.770158,1.93280,0.00330623,5254.45,130.523
"2015-04-01 11:05:00 000",404.172,0.953826,1.92948,0.00457187,4763.49,137.020
"2015-04-01 11:15:00 000",403.290,0.690307,1.92306,0.00369402,5061.47,222.445
"2015-04-01 11:25:00 000",402.845,0.682447,1.92697,0.00390915,5567.57,223.178
"2015-04-01 11:35:00 000",402.157,0.639454,1.92417,0.00427388,6022.65,185.456
"2015-04-01 11:45:00 000",402.641,0.645591,1.92314,0.00412085,5878.48,200.293
"2015-04-01 11:55:00 000",402.009,0.685636,1.92281,0.00540754,5920.30,216.944
"2015-04-01 12:05:00 000",402.041,0.662442,1.92005,0.00625483,5923.66,245.909
"2015-04-01 12:15:00 000",402.779,0.674727,1.92926,0.00506703,6318.94,236.624
"2015-04-01 12:25:00 000",402.807,0.699234,1.93491,0.00465694,6533.88,224.367
"2015-04-01 12:35:00 000",403.565,0.628210,1.93692,0.00434538,6558.58,206.411
"2015-04-01 12:45:00 000",403.855,0.679135,1.94052,0.00606973,6565.57,201.074
"2015-04-01 12:55:00 000",404.004,0.711247,1.93719,0.00455096,6794.19,203.629
"2015-04-01 13:05:00 000",405.098,0.704951,1.93816,0.00397145,6270.95,273.306
"2015-04-01 13:15:00 000",404.761,0.840343,1.93420,0.00389274,5768.36,155.278
"2015-04-01 13:25:00 000",404.967,0.790963,1.93237,0.00411636,5786.40,151.047
"2015-04-01 13:35:00 000",405.319,0.651724,1.93006,0.00395826,5371.11,282.034
"2015-04-01 13:45:00 000",403.889,0.857520,1.93632,0.00325336,5084.67,206.924
"2015-04-01 13:55:00 000",404.290,0.692543,1.94005,0.00982448,5786.12,132.679
"2015-04-01 14:05:00 000",405.115,0.633484,1.93612,0.00753722,5695.94,140.510
"2015-04-01 14:15:00 000",405.524,0.660397,1.93925,0.00736642,5234.94,139.403
"2015-04-01 14:25:00 000",405.217,0.693568,1.93577,0.00444179,5189.15,112.338
"2015-04-01 14:35:00 000",404.799,0.689670,1.93205,0.00359622,5160.80,104.124
"2015-04-01 14:45:00 000",404.134,0.710156,1.93514,0.00476974,5348.28,120.809
"2015-04-01 14:55:00 000",404.448,0.655137,1.93067,0.00364078,5101.21,123.125
"2015-04-01 15:05:00 000",403.996,0.668103,1.93054,0.00454721,4992.89,101.430
"2015-04-01 15:15:00 000",404.238,0.707588,1.94091,0.00911262,4894.27,102.686
"2015-04-01 15:25:00 000",404.276,0.661579,1.94127,0.0119236,4943.31,91.6133
"2015-04-01 15:35:00 000",404.357,0.640531,1.94418,0.0108781,4959.78,106.148
"2015-04-01 15:45:00 000",404.261,0.639497,1.94843,0.0159341,4933.02,91.1298
"2015-04-01 15:55:00 000",404.145,0.634659,1.93022,0.00318256,4878.66,94.5272
"2015-04-01 16:05:00 000",403.944,0.661337,1.93033,0.00345403,4938.33,85.5014
"2015-04-01 16:15:00 000",403.839,0.668505,1.92909,0.00327013,4877.66,84.1997
"2015-04-01 16:25:00 000",403.963,0.652200,1.93228,0.00380288,4802.25,82.4528
"2015-04-01 16:35:00 000",404.210,0.683766,1.92871,0.00322381,4746.68,85.4092
"2015-04-01 16:45:00 000",404.200,0.628475,1.92742,0.00315855,4681.96,74.6822
"2015-04-01 16:55:00 000",403.998,0.680812,1.93042,0.00501005,4673.11,78.3989
"2015-04-01 17:05:00 000",404.229,0.726769,1.93635,0.0103234,4662.13,77.9312
"2015-04-01 17:15:00 000",404.212,0.682885,1.93182,0.00323762,4640.55,77.6451
"2015-04-01 17:25:00 000",404.538,0.706051,1.93413,0.00374444,4655.77,77.2468
"2015-04-01 17:35:00 000",404.957,0.690216,1.93417,0.00339023,4701.13,80.5817
"2015-04-01 17:45:00 000",405.161,0.707462,1.93400,0.00329125,4769.96,80.8910
"2015-04-01 17:55:00 000",405.416,0.697387,1.93545,0.00329855,4841.86,76.5440
"2015-04-01 18:05:00 000",405.464,0.699158,1.93643,0.00350740,4874.63,82.0138
"2015-04-01 18:15:00 000",405.070,0.697453,1.94002,0.00764654,4903.01,80.8114
"2015-04-01 18:25:00 000",404.905,0.719324,1.94368,0.0176752,4922.39,84.0016
"2015-04-01 18:35:00 000",405.435,0.703934,1.96459,0.0266371,4961.95,90.0889
"2015-04-01 18:45:00 000",405.210,0.723223,1.94341,0.0123587,4992.15,80.4391
"2015-04-01 18:55:00 000",405.330,0.631851,1.99777,0.0230335,4997.51,78.6302
"2015-04-01 19:05:00 000",405.237,0.676224,1.99922,0.0213857,5033.08,74.2201
"2015-04-01 19:15:00 000",405.039,0.661194,1.96120,0.0119340,5008.96,78.0009
"2015-04-01 19:25:00 000",404.995,0.633567,1.95005,0.00550474,5046.44,80.5124
"2015-04-01 19:35:00 000",405.645,0.781702,1.97795,0.0228550,5065.83,74.7262
"2015-04-01 19:45:00 000",406.589,0.687512,1.96978,0.0201490,5093.19,81.6014
"2015-04-01 19:55:00 000",406.605,0.666945,1.96618,0.00831036,5217.42,88.0737
"2015-04-01 20:05:00 000",406.085,0.758206,1.98810,0.0126467,5263.36,87.0944
"2015-04-01 20:15:00 000",405.841,0.715779,1.96598,0.0112481,5396.45,117.893
"2015-04-01 20:25:00 000",405.436,0.721954,1.95294,0.00316117,5560.99,87.3306
"2015-04-01 20:35:00 000",405.462,0.679727,1.96069,0.00586711,5631.34,82.3341
"2015-04-01 20:45:00 000",405.662,0.694741,1.96550,0.00606769,5710.74,88.4948
"2015-04-01 20:55:00 000",405.719,0.706519,1.97870,0.00797178,5824.80,81.9254
"2015-04-01 21:05:00 000",405.884,0.668022,1.98475,0.00968608,5884.75,86.7279
"2015-04-01 21:15:00 000",406.137,0.642674,1.98360,0.00750077,5961.04,82.8879
"2015-04-01 21:25:00 000",406.232,0.682593,1.97394,0.00724062,6038.47,81.2856
"2015-04-01 21:35:00 000",406.095,0.752404,1.97803,0.00689632,6103.69,85.3900
"2015-04-01 21:45:00 000",406.455,0.691503,1.96964,0.00787872,6114.49,76.9638
"2015-04-01 21:55:00 000",406.886,0.703420,1.97202,0.00680736,6155.99,82.4533
"2015-04-01 22:05:00 000",406.898,0.674320,1.97330,0.00753528,6170.02,83.7331
"2015-04-01 22:15:00 000",406.813,0.672923,1.97336,0.00877959,6172.21,78.6926
"2015-04-01 22:25:00 000",406.741,0.683802,1.98289,0.00876825,6175.00,89.0335
"2015-04-01 22:35:00 000",406.459,0.630206,1.97251,0.00843441,6149.79,85.3527
"2015-04-01 22:45:00 000",406.103,0.666533,1.96324,0.0177694,5920.67,226.304
"2015-04-01 22:55:00 000",405.573,0.699402,1.94899,0.00368110,5601.65,87.8970
"2015-04-01 23:05:00 000",405.443,0.725488,1.96920,0.00801661,5886.43,127.171
"2015-04-01 23:15:00 000",404.884,0.657172,1.98244,0.0128961,6090.94,99.2167
"2015-04-01 23:25:00 000",405.176,0.651634,1.99469,0.0130649,6286.45,130.183
"2015-04-01 23:35:00 000",404.853,0.734045,1.99106,0.0164480,6475.95,117.077
"2015-04-01 23:45:00 000",404.448,0.674407,1.96962,0.0116760,6617.49,117.475
"2015-04-01 23:55:00 000",405.127,0.760521,1.95517,0.00637548,6670.68,122.222
"2015-04-02 00:05:00 000",405.637,0.687338,1.96566,0.0114277,6666.27,127.210
"2015-04-02 00:15:00 000",405.170,0.659108,1.97998,0.0124628,6704.59,132.858
"2015-04-02 00:25:00 000",404.666,0.660601,1.96317,0.00805285,6739.90,130.521
"2015-04-02 00:35:00 000",404.687,0.656324,1.96667,0.0148095,6788.02,125.233
"2015-04-02 00:45:00 000",404.964,0.651140,1.98216,0.00918887,6828.22,138.523
"2015-04-02 00:55:00 000",405.340,0.665234,1.98845,0.0100336,6898.64,140.661
"2015-04-02 01:05:00 000",405.336,0.629600,1.98119,0.0131789,6939.13,142.670
"2015-04-02 01:15:00 000",405.502,0.686431,1.98043,0.00914900,6990.03,138.134
"2015-04-02 01:25:00 000",405.522,0.670315,1.98488,0.00901202,7051.95,134.394
"2015-04-02 01:35:00 000",405.672,0.697973,1.98036,0.0108256,7080.12,131.940
"2015-04-02 01:45:00 000",405.569,0.688925,1.98959,0.0110317,7050.07,134.427
"2015-04-02 01:55:00 000",405.133,0.691599,1.98590,0.0145601,7045.84,136.591
"2015-04-02 02:05:00 000",404.846,0.659449,1.97211,0.00950311,7068.05,131.401
"2015-04-02 02:15:00 000",404.756,0.673319,1.97152,0.0112517,7092.29,135.967
"2015-04-02 02:25:00 000",405.337,0.668214,1.96864,0.00702026,7119.58,128.786
"2015-04-02 02:35:00 000",405.554,0.665687,1.96773,0.00919574,7122.05,140.998
"2015-04-02 02:45:00 000",405.222,0.682110,1.96362,0.00883625,7117.83,128.922
"2015-04-02 02:55:00 000",404.777,0.685664,1.96567,0.0107656,7080.70,125.932
"2015-04-02 03:05:00 000",404.356,0.678870,1.96422,0.0104967,7033.41,135.052
"2015-04-02 03:15:00 000",404.473,0.654243,1.97112,0.0109226,7036.52,130.317
"2015-04-02 03:25:00 000",404.355,0.654301,1.96632,0.0125491,7053.16,140.867
"2015-04-02 03:35:00 000",404.103,0.662913,1.95534,0.0103448,7068.29,146.449
"2015-04-02 03:45:00 000",404.001,0.691380,1.94360,0.00742337,7061.45,139.495
"2015-04-02 03:55:00 000",404.232,0.658924,1.94378,0.00860672,7106.97,143.536
"2015-04-02 04:05:00 000",404.889,0.648519,1.98262,0.0173412,7126.18,144.923
"2015-04-02 04:15:00 000",405.394,0.691150,1.98601,0.0176758,7146.79,144.686
"2015-04-02 04:25:00 000",405.298,0.635614,1.97872,0.0126031,7181.33,146.441
"2015-04-02 04:35:00 000",405.543,0.651899,1.97029,0.0151088,7241.22,151.473
"2015-04-02 04:45:00 000",405.995,0.712722,1.94389,0.00991147,7241.76,150.563
"2015-04-02 04:55:00 000",405.514,0.699643,1.93515,0.00405178,7180.28,148.793
"2015-04-02 05:05:00 000",405.912,0.687233,1.93458,0.00374396,7202.50,146.123
"2015-04-02 05:15:00 000",406.303,0.686057,1.93613,0.00362011,7234.02,140.250
"2015-04-02 05:25:00 000",406.649,0.658206,1.93804,0.00362718,7263.44,152.003
"2015-04-02 05:35:00 000",406.200,0.786182,1.93558,0.00399114,7270.33,154.650
"2015-04-02 05:45:00 000",406.055,0.716436,1.93454,0.00355627,7304.23,151.107
"2015-04-02 05:55:00 000",406.322,0.745434,1.93689,0.00399046,7304.42,152.224
"2015-04-02 06:05:00 000",405.991,0.690170,1.93629,0.00369365,7309.74,148.288
"2015-04-02 06:15:00 000",405.517,0.675286,1.93822,0.00363900,7300.88,153.083
"2015-04-02 06:25:00 000",405.829,0.655730,1.94235,0.00361171,7276.51,150.035
"2015-04-02 06:35:00 000",405.440,0.919681,1.94130,0.00729341,7199.52,172.709
"2015-04-02 06:45:00 000",403.119,0.658333,1.92066,0.00405892,6900.48,168.185
"2015-04-02 06:55:00 000",403.386,0.655523,1.92360,0.00397904,6889.72,175.393
"2015-04-02 07:05:00 000",403.581,0.622660,1.92807,0.00402378,6966.48,189.384
"2015-04-02 07:15:00 000",403.453,0.646070,1.93221,0.00448771,6995.97,196.099
"2015-04-02 07:25:00 000",404.084,0.617179,1.93730,0.00407200,7009.73,210.440
"2015-04-02 07:35:00 000",404.553,0.690495,1.93952,0.00433635,7006.82,200.035
"2015-04-02 07:45:00 000",404.753,0.659036,1.94359,0.00450214,7071.31,212.039
"2015-04-02 07:55:00 000",404.224,0.625917,1.94464,0.00440438,7119.40,213.653
"2015-04-02 08:05:00 000",404.265,0.696583,1.94556,0.00463700,7146.42,216.428
"2015-04-02 08:15:00 000",403.863,0.677517,1.94523,0.00455939,7209.90,210.241
"2015-04-02 08:25:00 000",404.362,0.661384,1.94785,0.00444316,7241.46,215.972
"2015-04-02 08:35:00 000",404.479,0.634914,1.94002,0.00481234,7236.44,220.005
"2015-04-02 08:45:00 000",404.604,0.614782,1.93550,0.00414055,7256.73,211.159
"2015-04-02 08:55:00 000",404.279,0.686214,1.93461,0.00431708,7261.99,207.411
"2015-04-02 09:05:00 000",404.043,0.630185,1.93458,0.00432701,7320.79,203.708
"2015-04-02 09:15:00 000",403.605,0.650469,1.93367,0.00456461,7421.53,218.592
"2015-04-02 09:25:00 000",403.351,0.667981,1.93792,0.00467064,7618.85,205.382
"2015-04-02 09:35:00 000",402.648,0.695532,1.93450,0.00436478,7653.65,188.731
"2015-04-02 09:45:00 000",402.947,0.647885,1.93367,0.00423761,7536.83,178.744
"2015-04-02 09:55:00 000",402.816,0.638980,1.93351,0.00402218,7320.01,244.699
"2015-04-02 10:05:00 000",403.294,0.650890,1.93235,0.00479056,6573.44,322.577
"2015-04-02 10:15:00 000",403.545,0.640931,1.93372,0.00416419,6020.48,185.860
"2015-04-02 10:25:00 000",403.252,0.648554,1.93769,0.00447910,6051.49,200.673
"2015-04-02 10:35:00 000",402.711,0.623029,1.93992,0.00400172,6301.35,193.424
"2015-04-02 10:45:00 000",402.867,0.629972,1.94014,0.00398265,6422.78,205.804
"2015-04-02 10:55:00 000",402.897,0.688302,1.94066,0.00431123,6331.58,192.417
"2015-04-02 11:05:00 000",403.070,0.641898,1.94408,0.00400864,6109.93,216.337
"2015-04-02 11:15:00 000",402.777,0.675297,1.94510,0.00428922,5925.68,181.847
"2015-04-02 11:25:00 000",402.878,0.769887,1.94069,0.00378985,6158.76,158.295
"2015-04-02 11:35:00 000",403.367,0.637201,1.93923,0.00361988,5870.57,174.471
"2015-04-02 11:45:00 000",403.584,0.724435,1.93820,0.00362582,5460.55,212.290
"2015-04-02 11:55:00 000",403.831,0.644507,1.93623,0.00364870,5021.99,104.409
"2015-04-02 12:05:00 000",403.419,0.626249,1.93972,0.00358588,4746.88,116.920
"2015-04-02 12:15:00 000",402.826,0.650589,1.93843,0.00350461,4847.19,111.261
"2015-04-02 12:25:00 000",403.165,0.719469,1.93750,0.00322070,4872.25,88.4224
"2015-04-02 12:35:00 000",403.216,0.644830,1.93729,0.00328707,4728.63,82.4522
"2015-04-02 12:45:00 000",402.660,0.652821,1.93752,0.00327960,4678.89,78.3799
"2015-04-02 12:55:00 000",402.553,0.666593,1.93838,0.00300350,4804.07,105.934
"2015-04-02 13:05:00 000",402.916,0.630109,1.93619,0.00345128,4724.02,119.622
"2015-04-02 13:15:00 000",402.854,0.640709,1.93783,0.00306297,4704.57,104.376
"2015-04-02 13:25:00 000",403.180,0.658308,1.93453,0.00328210,4589.71,111.102
"2015-04-02 13:35:00 000",402.812,0.668446,1.93662,0.00335979,4396.77,164.706
"2015-04-02 13:45:00 000",402.958,0.657323,1.93673,0.00330033,4552.19,165.027
"2015-04-02 13:55:00 000",402.306,0.670462,1.93496,0.00309808,4558.17,172.004
"2015-04-02 14:05:00 000",402.466,0.657922,1.93431,0.00302480,4219.72,82.9594
"2015-04-02 14:15:00 000",401.964,0.652359,1.93451,0.00309787,4309.11,138.660
"2015-04-02 14:25:00 000",402.181,0.674576,1.93510,0.00320160,4438.33,143.543
"2015-04-02 14:35:00 000",402.293,0.640520,1.93430,0.00319676,4532.49,125.182
"2015-04-02 14:45:00 000",402.295,0.605804,1.93293,0.00314828,4406.82,130.585
"2015-04-02 14:55:00 000",402.436,0.722294,1.93365,0.00329247,4208.68,117.652
"2015-04-02 15:05:00 000",402.805,0.667446,1.93171,0.00378560,4374.37,128.705
"2015-04-02 15:15:00 000",402.729,0.693513,1.93049,0.00297849,4232.21,89.8409
"2015-04-02 15:25:00 000",402.555,0.660160,1.93258,0.00318351,4194.05,102.923
"2015-04-02 15:35:00 000",402.582,0.664278,1.93550,0.00326640,4397.16,132.990
"2015-04-02 15:45:00 000",402.740,0.698089,1.93500,0.00346108,4357.78,89.3809
"2015-04-02 15:55:00 000",403.142,0.663362,1.93336,0.00326173,4366.97,103.004
"2015-04-02 16:05:00 000",403.142,0.676710,1.93412,0.00323045,4232.08,116.764
"2015-04-02 16:15:00 000",402.816,0.684974,1.93428,0.00318031,4394.77,87.4966
"2015-04-02 16:25:00 000",402.881,0.623039,1.93511,0.00306167,4232.53,76.8076
"2015-04-02 16:35:00 000",402.753,0.657934,1.93534,0.00306019,4333.08,86.5947
"2015-04-02 16:45:00 000",402.898,0.643715,1.93620,0.00313526,4464.76,99.8194
"2015-04-02 16:55:00 000",403.202,0.696124,1.93721,0.00317687,4548.52,82.8606
"2015-04-02 17:05:00 000",403.283,0.659528,1.93739,0.00330879,4513.56,84.2782
"2015-04-02 17:15:00 000",403.409,0.661483,1.93797,0.00322159,4554.98,74.5738
"2015-04-02 17:25:00 000",403.673,0.678901,1.93885,0.00321120,4623.79,83.9210
"2015-04-02 17:35:00 000",403.692,0.741601,1.94104,0.00344132,4702.44,89.6010
"2015-04-02 17:45:00 000",404.314,0.664305,1.93981,0.00325614,4729.74,80.7106
"2015-04-02 17:55:00 000",404.535,0.665372,1.93953,0.00329521,4746.25,77.3303
"2015-04-02 18:05:00 000",404.591,0.674179,1.94058,0.00322542,4747.39,78.6890
"2015-04-02 18:15:00 000",405.130,0.751235,1.94201,0.00330428,4780.59,77.7528
"2015-04-02 18:25:00 000",404.975,0.754034,1.94602,0.00347516,4812.32,77.3910
"2015-04-02 18:35:00 000",405.320,0.699962,1.94605,0.00348686,4844.04,80.0432
"2015-04-02 18:45:00 000",405.135,0.690041,1.94426,0.00352322,4874.52,73.7224
"2015-04-02 18:55:00 000",405.458,0.690840,1.95354,0.00494873,4904.80,81.2490
"2015-04-02 19:05:00 000",405.144,0.655039,1.95733,0.00332255,4961.35,76.7969
"2015-04-02 19:15:00 000",405.077,0.724937,1.94814,0.00356948,5001.55,74.5828
"2015-04-02 19:25:00 000",405.740,0.739024,1.94794,0.00346864,5049.99,82.4640
"2015-04-02 19:35:00 000",405.498,0.696509,1.94670,0.00328895,5104.51,90.0400
"2015-04-02 19:45:00 000",405.408,0.691384,1.95040,0.00511562,5161.74,88.8062
"2015-04-02 19:55:00 000",406.286,0.652307,1.96589,0.00486567,5188.43,90.0508
"2015-04-02 20:05:00 000",406.693,0.669847,1.96016,0.00355155,5221.93,101.683
"2015-04-02 20:15:00 000",407.089,0.729103,1.96325,0.00385009,5305.10,103.238
"2015-04-02 20:25:00 000",407.558,0.719067,1.96508,0.00562891,5359.35,112.700
"2015-04-02 20:35:00 000",407.423,0.805503,1.97423,0.0119861,5395.00,114.947
"2015-04-02 20:45:00 000",407.373,0.769107,1.96753,0.00341661,5456.02,112.965
"2015-04-02 20:55:00 000",407.839,0.711269,2.00369,0.0291578,5458.77,131.722
"2015-04-02 21:05:00 000",409.062,0.934296,1.97519,0.00669525,5497.55,138.502
"2015-04-02 21:15:00 000",408.582,0.832161,2.02450,0.0382641,5564.84,139.623
"2015-04-02 21:25:00 000",409.319,0.756202,2.00789,0.0634114,5494.28,140.763
"2015-04-02 21:35:00 000",409.035,0.848588,1.96909,0.00407457,5520.85,149.556
"2015-04-02 21:45:00 000",409.370,0.747680,1.97304,0.00524661,5569.51,162.476
"2015-04-02 21:55:00 000",409.506,0.743895,1.98006,0.00680334,5609.16,169.698
"2015-04-02 22:05:00 000",409.545,0.807763,1.97998,0.00922121,5639.63,170.967
"2015-04-02 22:15:00 000",409.114,0.802315,1.99071,0.0157759,5656.06,182.479
"2015-04-02 22:25:00 000",409.157,0.726640,1.97855,0.00560258,5668.73,187.414
"2015-04-02 22:35:00 000",408.965,0.767244,1.97538,0.00483347,5693.85,199.319
"2015-04-02 22:45:00 000",409.363,0.749552,1.97120,0.00487673,5657.29,207.390
"2015-04-02 22:55:00 000",409.373,0.741046,1.97212,0.00692210,5697.49,217.712
"2015-04-02 23:05:00 000",409.364,1.05483,2.00012,0.0147255,5780.38,222.147
"2015-04-02 23:15:00 000",410.820,0.951900,1.97295,0.00714630,5772.60,219.241
"2015-04-02 23:25:00 000",411.910,0.995773,1.97634,0.00748398,5781.94,218.361
"2015-04-02 23:35:00 000",412.335,0.838446,2.07008,0.0796558,5776.13,232.463
"2015-04-02 23:45:00 000",412.819,0.746018,1.98915,0.0313489,5692.43,229.428
"2015-04-02 23:55:00 000",412.104,0.673190,1.96834,0.00506635,5741.82,219.894
"2015-04-03 00:05:00 000",411.341,0.756652,1.96949,0.00593032,5768.83,234.396
"2015-04-03 00:15:00 000",411.330,0.698444,1.99000,0.0224369,5748.83,245.231
"2015-04-03 00:25:00 000",411.520,0.703031,1.98073,0.00741058,5735.13,228.199
"2015-04-03 00:35:00 000",411.978,0.685757,1.98973,0.0136941,5727.37,225.639
"2015-04-03 00:45:00 000",413.841,0.807727,2.00833,0.0216896,5638.97,214.452
"2015-04-03 00:55:00 000",413.535,0.795061,2.01186,0.0224894,5660.53,232.296
"2015-04-03 01:05:00 000",413.679,0.750234,2.01541,0.0385571,5682.72,227.006
"2015-04-03 01:15:00 000",412.712,0.827550,2.01561,0.0409203,5713.21,234.013
"2015-04-03 01:25:00 000",412.829,0.751049,1.99645,0.00557103,5714.38,224.719
"2015-04-03 01:35:00 000",412.232,0.880844,1.99174,0.00649238,5706.20,235.208
"2015-04-03 01:45:00 000",412.633,0.666769,2.00386,0.0105576,5678.38,240.958
"2015-04-03 01:55:00 000",412.552,0.751274,2.00368,0.0136535,5665.46,222.781